Location: Aciu?a
(46.2833°N, 22.4500°E)
Time: 12:38:56
(UTC+00:00)

H-2A R/B - Pass Details

Date: 25 October 2021
Orbit: 732 x 837 km, 98.2° (Epoch: 07 December)

Event Time Altitude Azimuth Distance (km) Brightness Sun altitude
Rises 17:02:40 0° 183° (S) 3,345 5.4 -17.2°
Reaches altitude 10° 17:05:05 10° 190° (S) 2,426 4.7 -17.6°
Maximum altitude 17:10:15 45° 262° (W) 1,127 3.3 -18.5°
Drops below altitude 10° 17:15:30 10° 335° (NNW) 2,461 5.0 -19.4°
Sets 17:17:59 0° 342° (NNW) 3,398 5.6 -19.9°
